Date String (YYYY-MM-DD hh:mm:ss) UTC,Instrument flags,Ambient pressure (hPa),Sample flow (lpm),Bypass flow (lpm),Sample temperature (°C),Ambient temperature (°C),ASC tube jacket temperature (°C),LED temperature (°C),Box temperature (°C),Sample RH (%),Span deviation,Mass concentration (μg/m³),Mass concentration (μg/m³),Mass concentration (μg/m³)
DateTimeUTC,F1_M11,P_M11,Q1_M11,Q2_M11,T1_M11,T2_M11,T3_M11,T4_M11,T5_M11,U1_M11,ZSPAN_M11,X2_M11,X0_M11,X1_M11
2021-09-18 06:00:00,,0832.2,5.01,0.00,29.0,28.2,00.0,38.2,30.7,20.6,0001.5,0011.40,0023.45,0009.17
2021-09-18 06:01:00,,0832.2,4.99,0.00,29.0,28.2,00.0,38.2,30.6,20.6,0001.5,0011.35,0022.93,0009.14
2021-09-18 06:02:00,,0832.3,5.01,0.00,29.0,28.2,00.0,38.2,30.6,20.6,0001.8,0011.31,0022.32,0009.11
2021-09-18 06:03:00,,0832.3,5.00,0.00,29.0,28.2,00.0,38.2,30.6,20.6,0001.5,0011.27,0022.19,0009.12
2021-09-18 06:04:00,,0832.3,5.01,0.00,29.0,28.2,00.0,38.2,30.7,20.6,0001.4,0011.19,0021.40,0009.11
2021-09-18 06:05:00,,0832.2,4.99,0.00,29.0,28.2,00.0,38.2,30.7,20.5,0001.5,0011.16,0020.29,0009.10
2021-09-18 06:06:00,,0832.3,5.00,0.00,28.9,28.2,00.0,38.2,30.7,20.4,0001.3,0011.13,0021.09,0009.11
2021-09-18 06:07:00,,0832.2,5.00,0.00,28.9,28.2,00.0,38.2,30.7,20.3,0001.0,0011.12,0022.41,0009.10
2021-09-18 06:08:00,,0832.3,5.01,0.00,28.9,28.2,00.0,38.2,30.7,20.2,0001.3,0011.10,0022.75,0009.08
2021-09-18 06:09:00,,0832.3,5.00,0.00,28.9,28.1,00.0,38.2,30.7,20.0,0001.5,0011.07,0023.93,0009.06
2021-09-18 06:10:00,,0832.3,4.99,0.00,28.9,28.2,00.0,38.2,30.6,20.2,0001.4,0011.06,0025.06,0009.04
2021-09-18 06:11:00,,0832.3,4.98,0.00,28.9,28.2,00.0,38.1,30.6,20.1,0001.5,0011.12,0025.31,0009.02
2021-09-18 06:12:00,,0832.3,5.02,0.00,28.9,28.2,00.0,38.1,30.7,20.0,0001.5,0011.09,0025.07,0009.00
2021-09-18 06:13:00,,0832.4,4.99,0.00,28.9,28.2,00.0,38.1,30.6,19.7,0001.7,0011.07,0024.70,0009.01
2021-09-18 06:14:00,,0832.3,5.00,0.00,28.9,28.2,00.0,38.1,30.7,19.8,0002.3,0011.03,0025.80,0008.97
2021-09-18 06:15:00,,0832.3,5.00,0.00,28.9,28.2,00.0,38.1,30.7,19.7,0002.4,0011.02,0027.10,0008.96
2021-09-18 06:16:00,,0832.3,5.01,0.00,28.9,28.2,00.0,38.1,30.7,19.7,0002.5,0010.99,0027.19,0008.96
2021-09-18 06:17:00,,0832.3,5.00,0.00,28.9,28.1,00.0,38.1,30.6,19.8,0002.5,0011.01,0026.38,0008.95
2021-09-18 06:18:00,,0832.3,5.00,0.00,28.9,28.1,00.0,38.1,30.6,19.9,0002.6,0011.01,0025.17,0008.94
2021-09-18 06:19:00,,0832.4,5.00,0.00,28.9,28.2,00.0,38.1,30.6,19.8,0002.5,0011.04,0025.80,0008.93
2021-09-18 06:20:00,,0832.4,5.02,0.00,28.9,28.2,00.0,38.1,30.6,19.6,0002.2,0011.06,0025.31,0008.92
2021-09-18 06:21:00,,0832.4,5.01,0.00,28.9,28.2,00.0,38.1,30.7,19.5,0002.1,0011.09,0024.30,0008.93
2021-09-18 06:22:00,,0832.4,4.98,0.00,28.9,28.2,00.0,38.1,30.6,19.9,0002.0,0010.95,0023.85,0008.92
2021-09-18 06:23:00,,0832.4,5.02,0.00,28.9,28.2,00.0,38.1,30.7,20.0,0001.9,0010.93,0024.73,0008.88
2021-09-18 06:24:00,,0832.5,4.99,0.00,28.9,28.2,00.0,38.1,30.7,19.7,0001.7,0010.96,0026.03,0008.84
2021-09-18 06:25:00,,0832.5,4.99,0.00,28.9,28.2,00.0,38.1,30.7,19.8,0001.4,0010.99,0024.89,0008.87
2021-09-18 06:26:00,,0832.5,5.00,0.00,28.9,28.2,00.0,38.1,30.7,19.9,0001.6,0010.98,0023.84,0008.87
2021-09-18 06:27:00,,0832.5,5.00,0.00,28.9,28.2,00.0,38.1,30.7,19.9,0001.7,0010.97,0023.77,0008.85
2021-09-18 06:28:00,,0832.4,5.00,0.00,28.9,28.2,00.0,38.1,30.7,19.8,0001.7,0010.99,0024.34,0008.83
2021-09-18 06:29:00,,0832.4,5.01,0.00,28.9,28.2,00.0,38.1,30.7,19.8,0001.6,0010.94,0024.86,0008.81
2021-09-18 06:30:00,,0832.5,4.99,0.00,28.9,28.2,00.0,38.1,30.7,19.9,0002.0,0010.93,0024.67,0008.80
2021-09-18 06:31:00,,0832.5,5.02,0.00,29.0,28.2,00.0,38.1,30.7,19.9,0002.0,0010.98,0024.98,0008.78
2021-09-18 06:32:00,,0832.5,4.99,0.00,28.9,28.2,00.0,38.1,30.7,19.7,0001.6,0010.97,0024.27,0008.77
2021-09-18 06:33:00,,0832.5,5.01,0.00,28.9,28.2,00.0,38.1,30.7,19.7,0001.7,0011.00,0024.87,0008.78
2021-09-18 06:34:00,,0832.5,4.98,0.00,28.9,28.2,00.0,38.1,30.7,19.7,0001.7,0010.96,0024.18,0008.80
2021-09-18 06:35:00,,0832.5,5.00,0.00,28.9,28.2,00.0,38.1,30.7,19.6,0001.9,0010.90,0024.52,0008.81
2021-09-18 06:36:00,,0832.5,5.00,0.00,28.9,28.2,00.0,38.1,30.6,19.6,0001.6,0010.87,0025.39,0008.80
2021-09-18 06:37:00,,0832.5,5.01,0.00,28.9,28.1,00.0,38.1,30.6,19.6,0001.4,0010.84,0025.49,0008.79
2021-09-18 06:38:00,,0832.5,4.99,0.00,28.9,28.1,00.0,38.1,30.6,19.6,0001.4,0010.81,0025.22,0008.81
2021-09-18 06:39:00,,0832.5,5.00,0.00,28.9,28.1,00.0,38.1,30.6,19.6,0001.4,0010.76,0024.74,0008.80
2021-09-18 06:40:00,,0832.4,5.00,0.00,28.9,28.1,00.0,38.1,30.6,19.8,0001.2,0010.74,0024.49,0008.77
2021-09-18 06:41:00,,0832.4,5.01,0.00,28.9,28.1,00.0,38.1,30.6,19.9,0000.8,0010.68,0023.97,0008.75
2021-09-18 06:42:00,,0832.5,5.00,0.00,28.9,28.1,00.0,38.1,30.6,19.6,0001.2,0010.61,0023.44,0008.74
2021-09-18 06:43:00,,0832.5,4.99,0.00,28.9,28.1,00.0,38.1,30.6,19.2,0001.3,0010.59,0024.32,0008.73
2021-09-18 06:44:00,,0832.4,5.01,0.00,28.9,28.1,00.0,38.1,30.6,19.3,0001.3,0010.59,0023.90,0008.71
2021-09-18 06:45:00,,0832.4,5.00,0.00,28.9,28.1,00.0,38.1,30.6,19.3,0001.3,0010.59,0023.40,0008.69
2021-09-18 06:46:00,,0832.5,4.99,0.00,28.9,28.1,00.0,38.1,30.6,19.3,0001.2,0010.55,0021.68,0008.69
2021-09-18 06:47:00,,0832.4,5.00,0.00,28.9,28.1,00.0,38.1,30.6,19.2,0001.5,0010.55,0020.94,0008.69
2021-09-18 06:48:00,,0832.4,5.01,0.00,28.9,28.1,00.0,38.1,30.6,19.1,0001.4,0010.57,0020.45,0008.68
2021-09-18 06:49:00,,0832.4,4.99,0.00,28.8,28.1,00.0,38.1,30.6,19.1,0001.2,0010.62,0020.54,0008.69
2021-09-18 06:50:00,,0832.3,4.99,0.00,28.8,28.1,00.0,38.0,30.5,18.9,0000.9,0010.66,0020.68,0008.71
2021-09-18 06:51:00,,0832.3,5.01,0.00,28.8,28.1,00.0,38.0,30.5,19.0,0000.7,0010.66,0020.83,0008.74
2021-09-18 06:52:00,,0832.3,5.01,0.00,28.8,28.1,00.0,38.0,30.5,18.9,0000.8,0010.69,0021.17,0008.76
2021-09-18 06:53:00,,0832.3,4.99,0.00,28.8,28.1,00.0,38.0,30.6,18.9,0000.4,0010.64,0022.22,0008.77
2021-09-18 06:54:00,,0832.3,4.99,0.00,28.8,28.1,00.0,38.0,30.6,18.8,0000.6,0010.59,0022.17,0008.77
2021-09-18 06:55:00,,0832.4,4.99,0.00,28.8,28.1,00.0,38.0,30.6,18.6,0000.5,0010.57,0022.02,0008.77
2021-09-18 06:56:00,,0832.3,5.00,0.00,28.8,28.1,00.0,38.0,30.6,18.6,0000.6,0010.56,0022.91,0008.77
2021-09-18 06:57:00,,0832.3,5.00,0.00,28.8,28.1,00.0,38.0,30.6,18.5,0000.4,0010.55,0023.11,0008.78
2021-09-18 06:58:00,,0832.3,5.00,0.00,28.8,28.1,00.0,38.0,30.6,18.5,0000.3,0010.52,0023.10,0008.78
2021-09-18 06:59:00,,0832.3,5.02,0.00,28.8,28.1,00.0,38.0,30.6,18.4,0000.5,0010.47,0023.17,0008.77
